Hourly Data Report for October 20, 2015

All times are specified in Local Standard Time (LST). Add 1 hour to adjust for Daylight Saving Time where and when it is observed.

RESOLUTE BAY A
NUNAVUT

74°43'01.000" N
94°58'10.000" W
67.70 m
2403498
71924
YRB

Download Data

Hourly Data (October 2015)
Hourly Data Report for October 20, 2015
Temp Definition
°C
Dew Point Temp Definition
°C
Rel Hum Definition
%
Wind Dir Definition
10's deg

Wind Spd Definition
km/h
Visibility Definition
km
Stn Press Definition
kPa
Hmdx Definition


Wind Chill Definition


Weather Definition


TIME
00:00 Legend Double Dagger -14.2 -15.9 87 21 29 16.1 100.17   -25 Snow
01:00 Legend Double Dagger -13.6 -15.2 88 18 14 16.1 100.14   -21 Snow
02:00 Legend Double Dagger -13.3 -14.9 88 21 34 16.1 100.07   -24 Snow,Blowing Snow
03:00 Legend Double Dagger -13.0 -14.6 88 20 18 16.1 100.04   -21 Snow,Blowing Snow
04:00 Legend Double Dagger -12.7 -14.2 89 21 32 16.1 99.98   -23 Snow,Blowing Snow
05:00 Legend Double Dagger -12.2 -13.7 89 22 35 11.3 99.92   -23 Snow,Blowing Snow
06:00 Legend Double Dagger -12.1 -13.6 89 23 30 11.3 99.89   -22 Snow,Blowing Snow
07:00
08:00 Legend Double Dagger -12.1 -13.6 89 28 20 4.8 99.84   -21 Snow
09:00 Legend Double Dagger -14.9 -16.6 87 34 14 16.1 99.87   -22 Cloudy
10:00 Legend Double Dagger -14.0 -15.6 88 34 12 16.1 99.90   -21 LegendNANA
11:00 Legend Double Dagger -13.9 -15.5 88 34 14 16.1 99.92   -21 LegendNANA
12:00 Legend Double Dagger -13.4 -15.0 88 33 8 24.1 99.94   -18 Cloudy
13:00 Legend Double Dagger -13.5 -15.1 88 35 14 24.1 99.99   -21 LegendNANA
14:00 Legend Double Dagger -13.9 -15.5 88 33 21 16.1 100.06   -23 LegendNANA
15:00 Legend Double Dagger -13.9 -15.5 88 34 21 16.1 100.09   -23 Cloudy
16:00 Legend Double Dagger -13.8 -15.4 88 33 19 16.1 100.12   -22 LegendNANA
17:00 Legend Double Dagger -14.4 -16.1 87 32 17 16.1 100.16   -23 LegendNANA
18:00 Legend Double Dagger -15.0 -16.7 87 33 18 16.1 100.17   -24 Cloudy
19:00 Legend Double Dagger -14.9 -16.6 87 33 13 16.1 100.18   -22 LegendNANA
20:00 Legend Double Dagger -14.7 -16.4 87 34 14 16.1 100.21   -22 LegendNANA
21:00 Legend Double Dagger -14.7 -16.4 87 33 18 16.1 100.21   -23 Cloudy
22:00 Legend Double Dagger -15.1 -16.8 87 33 9 16.1 100.20   -21 Snow
23:00 Legend Double Dagger -14.4 -16.1 87 30 24 16.1 100.19   -24 Snow

Notes on Data Quality.

Legend

  • E = Estimated
  • M = Missing
  • NA = Not Available
  • ‡ = Partner data that is not subject to review by the National Climate Archives
Date modified: